Location: Copeville
(33.0796°N, 96.4155°W)
Time: 22:39:04
(UTC+00:00)

SEEDS - Pass Details

Date: 03 April 2023
Orbit: 568 x 587 km, 97.7° (Epoch: 27 May)

Event Time Altitude Azimuth Distance (km) Brightness Sun altitude
Rises 11:10:27 0° 354° (N) 2,828 ? -13.3°
Reaches altitude 10° 11:13:02 10° 338° (NNW) 1,922 ? -12.8°
Maximum altitude 11:16:08 21° 290° (WNW) 1,357 ? -12.1°
Enters shadow 11:17:37 17° 261° (W) 1,501 ? -11.8°
